Weather History for Nairobi Jomo, Kenya

Change the Weather History Date:

Monday, December 9, 2013

  Actual Average (HKNW) Record (HKNW)
Temperature  
Mean Temperature 68 °F -  
Max Temperature 77 °F 72 °F 78 °F (2005)
Min Temperature 58 °F 62 °F 59 °F (2011)
Cooling Degree Days 2    
Growing Degree Days 18 (Base 50)    
Moisture  
Dew Point 60 °F    
Average Humidity 83    
Maximum Humidity 100    
Minimum Humidity 47    
Precipitation  
Precipitation 0.00 in - - ()
Sea Level Pressure  
Sea Level Pressure 30.14 in    
Wind  
Wind Speed 7 mph ()    
Max Wind Speed 13 mph    
Max Gust Speed -    
Visibility 6.7 miles    
Events Rain    
Averages and records for this station are not official NWS values.
T = Trace of Precipitation, MM = Missing Value Source: Averaged Metar Reports

Daily Weather History Graph

Daily Weather History Graph

Search for Another Location

Airport:

Trip Planner

Search our weather history database for the weather conditions in past years. The results will help you decide how hot, cold, wet, or windy it might be!

Date:

Astronomy

Dec. 09, 2013 Rise Set
Actual Time 6:18 AM EAT 6:30 PM EAT
Civil Twilight 5:56 AM EAT 6:53 PM EAT
Nautical Twilight 5:30 AM EAT 7:19 PM EAT
Astronomical Twilight 5:03 AM EAT 7:45 PM EAT
Moon 12:15 PM EAT (12/9) No Moon Set
Length of Visible Light 12h 56m
Length of Day
12h 11m
Waxing Crescent, 47% of the Moon is Illuminated
Dec 9
Waxing Crescent
Dec 9
First Quarter
Dec 17
Full
Dec 25
Last Quarter
Jan 1
New

Hourly Weather History & Observations

Time (EAT) Temp. Dew Point Humidity Pressure Visibility Wind Dir Wind Speed Gust Speed Precip Events Conditions
12:00 AM 64.4 °F 60.8 °F 88% 30.15 in 6.2 mi ENE 10.4 mph - N/A   Mostly Cloudy
12:30 AM 64.4 °F 60.8 °F 88% 30.15 in 6.2 mi East 11.5 mph - N/A   Mostly Cloudy
1:00 AM 64.4 °F 60.8 °F 88% 30.15 in 6.2 mi ENE 8.1 mph - N/A   Mostly Cloudy
1:30 AM 64.4 °F 60.8 °F 88% 30.15 in 6.2 mi NNW 6.9 mph - N/A   Mostly Cloudy
2:00 AM 64.4 °F 60.8 °F 88% 30.12 in 6.2 mi East 6.9 mph - N/A Rain Light Rain
3:00 AM 62 °F 61 °F 97%  in 6 mi ESE 6.9 mph - - Rain Rain
3:00 AM 62.6 °F 60.8 °F 94% 30.12 in 6.2 mi ESE 6.9 mph - N/A Rain Light Rain
4:00 AM 60.8 °F 60.8 °F 100% 30.15 in 6.2 mi ESE 9.2 mph - N/A Rain Light Rain
5:00 AM 60.8 °F 59.0 °F 94% 30.18 in 6.2 mi WNW 4.6 mph - N/A Rain Light Rain
5:30 AM 60.8 °F 59.0 °F 94% 30.18 in 6.2 mi NW 10.4 mph - N/A Rain Light Rain
6:00 AM 59.0 °F 59.0 °F 100% 30.18 in 6.2 mi NW 8.1 mph - N/A Rain Light Rain
6:30 AM 59.0 °F 57.2 °F 94% 30.18 in 6.2 mi Calm Calm - N/A Rain Light Rain
7:00 AM 59.0 °F 57.2 °F 94% 30.21 in 5.0 mi North 5.8 mph - N/A Rain Light Rain
8:00 AM 59.0 °F 59.0 °F 100% 30.21 in 6.2 mi NNE 4.6 mph - N/A Rain Light Rain
8:30 AM 59.0 °F 59.0 °F 100% 30.21 in 6.2 mi NNW 3.5 mph - N/A   Mostly Cloudy
9:00 AM 60 °F 58 °F 92%  in 12 mi ENE 3.5 mph - - Rain Light Rain
9:00 AM 60.8 °F 59.0 °F 94% 30.21 in 6.2 mi ENE 3.5 mph - N/A   Mostly Cloudy
10:00 AM 64.4 °F 59.0 °F 83% 30.21 in 6.2 mi WSW 3.5 mph - N/A   Mostly Cloudy
12:30 PM 75.2 °F 57.2 °F 53% 30.12 in 6.2 mi NNW 5.8 mph - N/A   Scattered Clouds
1:00 PM 77.0 °F 57.2 °F 50% 30.12 in 6.2 mi NE 6.9 mph - N/A   Mostly Cloudy
2:00 PM 77.0 °F 59.0 °F 54% 30.06 in 6.2 mi ENE 6.9 mph - N/A   Mostly Cloudy
3:00 PM 75 °F 59 °F 47%  in 19 mi ESE 6.9 mph - -   Scattered Clouds
3:00 PM 75.2 °F 59.0 °F 57% 30.06 in 6.2 mi ESE 6.9 mph - N/A   Scattered Clouds
4:00 PM 75.2 °F 59.0 °F 57% 30.04 in 6.2 mi ENE 10.4 mph - N/A   Scattered Clouds
5:00 PM 77.0 °F 57.2 °F 50% 30.04 in 6.2 mi NNE 11.5 mph - N/A   Scattered Clouds
6:00 PM 73.4 °F 59.0 °F 61% 30.06 in 6.2 mi ENE 12.7 mph - N/A   Scattered Clouds
7:00 PM 66.2 °F 60.8 °F 83% 30.09 in 6.2 mi North 5.8 mph - N/A   Mostly Cloudy
8:00 PM 64.4 °F 62.6 °F 94% 30.12 in 6.2 mi NNE 6.9 mph - N/A Rain Light Rain
8:30 PM 64.4 °F 62.6 °F 94% 30.12 in 6.2 mi North 4.6 mph - N/A Rain Light Rain
9:00 PM 66.2 °F 62.6 °F 88% 30.15 in 6.2 mi NE 11.5 mph - N/A   Mostly Cloudy
10:00 PM 64.4 °F 62.6 °F 94% 30.15 in 6.2 mi ENE 11.5 mph - N/A Rain Light Rain
11:00 PM 62.6 °F 62.6 °F 100% 30.15 in 6.2 mi NE 3.5 mph - N/A Rain Rain